Location: Bellerive
(46.9237°N, 7.0223°E)
Time: 18:51:37
(UTC+00:00)

Abrixas rocket - Pass Details

Date: 09 April 2020
Orbit: 345 x 352 km, 48.4° (Epoch: 24 May)

Event Time Altitude Azimuth Distance (km) Brightness Sun altitude
Rises 19:59:50 0° 285° (WNW) 2,162 7.2 -17.6°
Reaches altitude 10° 20:01:56 10° 276° (W) 1,319 5.7 -17.9°
Enters shadow 20:04:36 37° 212° (SSW) 570 2.8 -18.3°
